星链-30610 (STARLINK-30610 )

导读

STARLINK-30610是美国太空探索技术公司星链星座的组网卫星,于2023年10月18日发射升空,属于星链低轨互联网星座的扩容卫星。星链系统旨在为全球提供高速低延迟互联网服务,该卫星入轨后,进一步完善了星链星座的全球覆盖能力,增强了星座整体的服务容量与稳定性。

Basic Information
目录编号:
58082
目录名称:
STARLINK-30610
国际标识:
2023-160H
轨道中心:
EARTH
卫星名称:
星链-30610
卫星全名:
星链-30610 (STARLINK-30610 )
卫星状态:
在轨 (已飞行974 天)
发射日期:
2023-10-18 UTC
国别 :
美国 (US)
星等 :
--
Orbit Information
数据来源 国际轨道数据 AOE轨道数据
星历时间 2026-06-17T05:26:58+0800
1天前
查看轨道信息
2026-06-16T06:00:00+0800
2天前
查看轨道信息
半长轴 6861.321km 6861.2km
偏心率 0.000034 0.0000989
轨道倾角 43.002° 42.999°
近地点辐角 254.498° 247.549°
升交点赤经 237.990° 243.513°
平近点角 105.583° 133.137°
近地点 482.95km 482.384km
远地点 483.418km 483.742km
周期 94.270分钟 94.267分钟
每日圈数 15.275351 15.275755
Detailed Information
固有亮度:
5
最大亮度:
0.3
卫星平台:
Starlink v2.0 mini
覆盖范围:
全球
运营商:
太空探索技术公司
运营商所在国:
美国
制造商(研发单位):
太空探索技术公司
制造商所在国:
美国
使用方式:
暂无
Satellite Introduction
星链(Starlink)计划是由太空探索技术公司(SpaceX)提出的一个巨型低轨卫星互联网星座项目,计划在2019年至2024年间在太空搭建由约1.2万颗卫星组成的“星链”网络,其中1584颗将部署在地球上空550千米处的近地轨道,并从2020年开始工作。该卫星仍在工作。
2D Orbit Map
3D Orbit Map
Orbit Altitude Analysis Chart
Orbit Inclination Analysis Chart
Orbit Comprehensive Analysis Chart
View Comprehensive Chart